GEFSSGP_con_cape1000_024.txt.gz
Probability
0 0 0 0 0 0 0 0 0 0 0 0 0 0 0 0 0 0 0 0 0 6 68 100 100 100 100 100 94 87 84 84 94 94 100 100 100 97 97 97 97 94 87 87 94 97 97 100 100
0 0 0 0 0 0 0 0 0 0 0 0 0 0 0 3 6 0 0 0 0 3 23 81 100 100 100 100 94 90 90 81 94 94 100 100 97 94 84 81 87 94 90 84 87 94 97 100 100
0 0 0 0 0 0 0 0 0 0 0 0 0 0 0 3 19 0 0 0 0 0 0 87 100 100 100 100 97 97 94 84 90 97 100 100 97 94 90 84 90 87 77 65 81 90 100 100 100
0 0 0 0 0 0 0 0 0 0 0 0 0 0 0 0 10 0 0 0 0 0 6 97 100 100 100 100 97 100 94 90 90 97 100 100 100 97 94 90 90 90 84 68 65 77 97 100 100
0 0 0 0 0 0 0 0 0 0 0 0 0 0 0 0 6 0 0 0 0 0 45 94 100 100 100 100 97 100 100 94 94 100 100 100 100 97 90 90 81 74 68 58 65 77 87 94 97
0 0 0 0 0 0 0 0 0 0 0 0 0 0 0 0 3 3 0 0 0 0 55 90 100 100 100 100 100 100 100 100 100 100 100 100 100 97 97 97 84 68 52 45 42 52 74 77 97
0 0 0 0 0 0 0 0 0 0 0 0 0 0 0 0 3 16 6 3 0 3 45 68 90 100 100 100 100 100 100 100 100 100 100 100 100 97 94 97 87 68 52 42 39 26 42 81 97
0 0 0 0 0 0 0 0 0 0 0 0 0 0 0 0 6 26 29 6 0 0 19 42 48 87 100 100 100 100 100 100 100 100 100 100 97 94 94 97 100 94 87 74 81 71 65 84 100
0 0 0 0 0 0 0 0 0 0 13 16 0 0 0 0 10 32 35 26 6 13 23 19 19 16 45 74 100 100 100 100 100 100 100 100 48 26 74 97 100 100 100 94 90 90 90 97 94
0 0 0 0 0 0 0 0 0 0 6 3 0 0 0 0 16 39 52 29 23 13 6 3 10 6 10 35 71 68 94 77 65 52 68 55 0 0 13 13 100 100 100 100 94 97 97 94 39
0 0 0 0 0 0 0 0 0 0 0 0 0 0 0 0 13 32 58 55 32 19 13 0 0 0 0 0 10 10 19 23 26 13 3 6 0 0 0 0 32 97 100 87 74 84 45 26 0
0 0 0 0 0 0 0 0 0 0 0 0 0 0 0 0 0 16 35 48 52 42 35 19 10 0 0 0 0 0 0 0 10 3 0 0 0 0 0 0 0 3 13 3 0 0 0 0 0
0 0 0 0 0 0 0 0 0 3 0 0 0 0 0 0 0 0 13 35 42 39 55 61 61 32 16 10 6 3 3 13 10 0 6 13 10 3 0 0 0 0 0 0 0 0 0 0 0
0 0 0 0 0 0 0 0 6 3 0 0 0 0 0 0 0 0 0 10 13 26 52 81 81 58 55 58 26 23 16 48 23 6 19 16 6 0 0 0 0 0 0 0 0 0 0 0 0
0 0 0 0 0 0 0 0 3 6 6 3 0 0 0 0 0 0 0 0 3 10 35 84 84 55 48 58 32 19 16 26 6 10 16 16 0 0 0 0 0 0 0 0 0 0 0 0 0
0 0 0 0 0 0 0 0 3 6 26 16 3 0 0 0 3 0 3 6 0 10 39 77 97 74 58 61 42 29 19 23 16 16 3 3 3 0 0 6 3 3 0 0 0 0 0 0 0
0 0 0 0 0 0 0 0 3 3 32 52 45 35 13 10 16 13 16 29 13 16 39 68 87 90 87 87 81 45 45 42 45 23 13 6 3 3 6 3 3 3 3 0 0 0 0 0 0
0 0 0 0 0 0 0 0 0 6 39 65 87 84 68 45 42 35 35 48 55 42 48 68 65 97 97 94 94 84 84 71 58 42 35 26 6 23 10 10 6 6 6 6 0 0 0 0 0
0 0 0 0 0 0 0 0 0 3 32 61 87 94 84 68 77 58 61 45 58 68 74 81 81 94 100 100 100 97 87 84 84 65 52 48 45 45 26 23 13 10 10 3 3 0 0 0 0
0 0 0 0 0 0 0 0 3 10 35 58 74 94 87 77 68 61 61 68 74 77 74 77 87 90 100 100 100 100 100 94 84 68 52 42 45 42 35 19 13 13 0 0 0 0 0 0 0
0 0 0 0 0 0 0 0 3 19 52 58 77 81 71 74 65 48 52 61 68 71 74 77 74 81 97 100 100 100 94 90 84 77 58 42 29 29 26 13 6 6 0 0 0 0 0 0 0
0 0 0 0 0 0 0 0 0 10 32 61 61 61 48 45 39 48 48 45 55 58 61 61 65 68 74 81 90 94 94 87 81 68 61 52 42 35 26 19 0 0 0 0 0 0 0 0 0
0 0 0 0 0 0 0 0 0 3 19 39 48 39 19 19 19 19 32 35 39 48 45 42 42 48 48 55 61 65 65 58 48 39 32 32 32 19 13 13 10 0 0 0 0 0 0 0 0
0 0 0 0 0 0 0 0 0 0 29 29 29 10 6 6 10 10 6 6 16 19 19 16 19 16 16 29 32 39 42 35 29 26 13 6 10 6 6 3 3 0 0 0 0 0 0 0 0
0 0 0 0 0 0 0 0 0 10 16 26 16 3 3 0 0 0 0 3 3 3 13 10 10 6 10 10 6 13 10 6 3 3 3 3 3 0 0 0 0 0 0 0 0 0 0 0 0
0 0 0 0 0 0 0 0 0 3 3 3 0 0 0 0 0 0 0 0 0 3 6 10 10 6 3 3 0 0 0 0 3 3 0 0 0 0 0 0 0 0 0 0 0 0 0 0 0
0 0 0 0 0 0 0 0 0 0 0 0 0 0 0 0 0 0 0 0 0 0 0 10 6 6 0 0 0 0 0 0 0 0 0 0 0 0 0 0 0 0 0 0 0 0 0 0 0
0 0 0 0 0 0 0 0 0 0 0 0 0 0 0 0 0 0 0 0 0 0 0 0 0 0 0 0 0 0 0 0 0 0 0 0 0 0 0 0 0 0 0 0 0 0 0 0 0
0 0 0 0 0 0 0 0 0 0 0 0 0 0 0 0 0 0 0 0 0 0 0 0 0 0 0 0 0 0 0 0 0 0 0 0 0 0 0 0 0 0 0 0 0 0 0 0 0
0 0 0 0 0 0 0 0 0 0 0 0 0 0 0 0 0 0 0 0 0 0 0 0 0 0 0 0 0 0 0 0 0 0 0 0 0 0 0 0 0 0 0 0 0 0 0 0 0

GEFSSGP_con_cape1000_030.txt.gz
Probability
0 0 0 0 0 0 0 0 0 0 0 0 0 0 0 0 0 0 0 0 0 0 65 87 81 48 45 52 71 87 94 97 100 100 97 100 100 100 100 100 100 97 90 87 94 94 100 94 84
0 0 0 0 0 0 0 0 0 0 0 0 0 0 0 0 0 0 0 0 0 10 58 71 81 71 48 48 68 87 94 97 97 100 100 97 94 90 90 94 90 87 77 71 81 97 97 97 94
0 0 0 0 0 0 0 0 0 0 0 0 0 0 0 0 0 0 0 0 0 10 52 71 87 74 77 68 71 90 94 94 100 100 100 97 90 84 87 94 90 77 58 61 77 90 100 100 100
0 0 0 0 0 0 0 0 0 0 0 0 0 0 0 0 0 0 0 0 0 6 19 84 94 87 81 84 87 94 94 94 97 100 100 97 87 74 68 71 68 81 68 65 71 87 97 100 100
0 0 0 0 0 0 0 0 0 0 0 0 0 0 0 0 0 0 0 0 0 0 13 90 100 94 90 84 87 94 94 94 97 100 100 100 94 84 65 74 81 77 77 65 68 77 84 97 100
0 0 0 0 0 0 0 0 0 0 0 0 0 0 0 0 0 0 0 0 0 0 19 94 100 100 94 90 94 94 94 94 100 100 100 100 100 97 87 87 81 71 58 61 61 61 81 87 94
0 0 0 0 0 0 0 0 0 0 0 0 0 0 0 0 0 0 0 0 0 0 16 77 97 97 97 97 100 97 97 94 97 100 100 100 100 97 97 97 90 71 68 48 42 39 39 58 90
0 0 0 0 0 0 0 0 0 0 0 0 0 0 0 0 0 0 0 0 0 6 13 19 35 65 90 90 100 100 100 94 97 100 100 100 100 97 97 97 97 87 77 68 45 48 52 68 87
0 0 0 0 0 0 0 0 0 0 0 0 0 0 0 0 0 0 0 0 0 6 16 6 6 3 26 61 94 97 100 100 100 100 100 100 97 81 90 97 97 94 94 97 87 94 90 94 94
0 0 0 0 0 0 0 0 0 0 0 0 0 0 3 0 0 0 0 0 0 0 13 10 0 0 3 52 65 77 97 100 94 90 100 100 39 10 58 32 97 97 100 100 100 100 100 100 81
0 0 0 0 0 0 0 0 0 0 0 0 0 0 13 6 3 0 0 0 0 0 0 16 10 0 0 3 0 29 45 45 45 39 45 23 3 0 6 0 0 10 42 74 94 94 94 90 65
0 0 0 0 0 0 0 0 0 0 0 0 0 10 29 32 29 3 0 0 0 0 0 6 10 0 3 3 0 13 13 16 16 16 10 3 3 0 0 0 0 0 0 6 32 39 32 16 16
0 0 0 0 0 0 0 0 0 0 0 0 0 19 42 52 52 42 16 3 0 0 0 3 10 3 3 3 0 10 10 13 13 13 6 6 3 3 3 0 0 0 0 0 3 3 0 0 0
0 0 0 0 0 0 0 0 0 0 0 0 0 10 35 48 68 68 55 39 13 3 3 3 6 3 3 3 0 0 6 10 6 6 10 10 6 3 0 0 0 0 0 0 0 0 0 0 0
0 0 0 0 0 0 0 0 0 0 0 0 0 6 26 29 58 68 68 61 39 19 10 6 6 0 0 0 0 0 0 0 0 3 3 6 6 0 3 3 0 0 0 0 0 0 0 0 0
0 0 0 0 0 0 0 0 0 0 0 0 0 0 10 13 29 58 77 81 71 45 29 23 32 13 6 6 3 3 3 10 13 16 26 23 16 13 10 3 3 0 0 0 0 0 0 0 0
0 0 0 0 0 0 0 0 0 0 0 0 3 0 0 0 10 16 42 61 71 68 45 48 48 58 42 35 29 26 23 13 19 13 13 26 29 26 10 6 6 0 0 0 0 3 0 0 0
0 0 0 0 0 0 0 0 0 0 0 3 3 3 0 0 0 3 13 35 48 55 52 61 74 74 68 48 29 16 16 13 16 16 19 13 10 10 6 6 3 6 6 6 6 6 0 0 0
0 0 0 0 0 0 0 0 0 3 0 3 3 6 6 3 6 10 16 19 32 39 42 61 68 68 65 48 48 39 35 26 26 29 35 35 16 13 6 3 6 10 6 6 6 6 3 0 0
0 0 0 0 0 0 0 0 3 19 35 29 32 29 35 29 26 16 19 26 29 29 32 42 48 61 61 65 65 55 65 48 52 52 39 39 39 29 29 16 13 13 16 16 6 0 6 6 0
0 0 0 0 0 0 0 0 0 6 26 42 45 26 42 45 42 32 35 29 35 32 42 39 48 55 65 65 61 55 45 42 39 35 32 29 26 32 35 29 19 13 10 13 6 3 3 0 0
0 0 0 0 0 0 0 0 0 0 6 13 23 29 19 23 32 26 16 16 23 29 19 23 29 39 48 52 52 61 55 52 48 23 13 10 13 13 16 6 6 6 3 6 6 3 3 3 3
0 0 0 0 0 0 0 0 0 0 0 3 10 6 3 6 16 10 13 16 19 26 26 29 26 23 29 39 48 58 48 48 16 10 6 0 3 3 0 6 6 3 0 0 0 3 3 0 3
0 0 0 0 0 0 0 0 0 0 0 0 3 0 0 0 3 3 6 6 10 13 10 6 19 13 10 19 32 39 29 19 6 3 0 0 3 3 0 0 0 3 0 0 0 0 0 0 0
0 0 0 0 0 0 0 0 0 0 0 0 0 0 0 0 0 0 0 0 6 3 6 6 6 6 3 3 6 10 10 6 0 0 0 0 0 0 0 0 0 0 0 0 0 0 0 0 0
0 0 0 0 0 0 0 0 0 0 0 0 0 0 0 0 0 0 0 0 0 0 0 0 0 0 0 3 3 3 3 3 3 0 0 0 0 0 0 0 0 0 0 0 0 0 0 0 0
0 0 0 0 0 0 0 0 0 0 0 0 0 0 0 0 0 0 0 0 0 0 0 0 0 0 0 0 0 0 0 0 0 0 0 0 0 0 0 0 0 0 0 0 0 0 0 0 0
0 0 0 0 0 0 0 0 0 0 0 0 0 0 0 0 0 0 0 0 0 0 0 0 0 0 0 0 0 0 0 0 0 0 0 0 0 0 0 0 0 0 0 0 0 0 0 0 0
0 0 0 0 0 0 0 0 0 0 0 0 0 0 0 0 0 0 0 0 0 0 0 0 0 0 0 0 0 0 0 0 0 0 0 0 0 0 0 0 0 0 0 0 0 0 0 0 0
0 0 0 0 0 0 0 0 0 0 0 0 0 0 0 0 0 0 0 0 0 0 0 0 0 0 0 0 0 0 0 0 0 0 0 0 0 0 0 0 0 0 0 0 0 0 0 0 0

GEFSSGP_con_cape1000_036.txt.gz
Probability
0 0 0 0 3 0 0 0 0 0 0 0 0 0 0 0 0 10 0 0 0 0 0 10 87 94 100 100 97 100 100 100 100 100 100 100 100 94 77 61 48 45 58 71 71 58 55 52 35
0 0 0 0 0 0 0 0 0 0 0 0 0 0 0 0 0 0 0 0 0 0 0 0 84 97 97 97 100 100 100 100 100 100 100 97 97 97 77 77 61 52 39 35 58 58 61 42 32
0 0 0 0 0 0 0 0 0 0 0 0 0 0 0 6 3 0 0 0 0 0 0 16 81 94 94 97 97 100 100 100 100 100 90 90 94 94 77 71 61 52 29 26 23 58 61 55 42
0 0 0 0 0 0 0 0 0 0 0 0 0 0 0 6 6 0 0 0 0 0 0 19 77 87 90 90 97 97 97 100 97 97 84 77 77 77 68 55 39 23 13 13 16 35 58 74 77
0 0 0 0 0 0 0 0 0 0 0 0 0 0 0 6 0 0 0 0 0 0 6 16 87 90 90 90 94 97 97 100 97 97 90 77 68 58 48 39 26 19 19 23 23 39 68 81 84
0 0 0 0 0 0 0 0 0 0 0 0 0 0 0 10 0 0 0 0 0 0 3 45 87 94 94 94 94 94 94 97 100 97 90 87 71 61 48 39 35 35 32 29 48 52 52 61 77
0 0 0 0 0 0 0 0 0 0 0 0 0 0 0 0 6 0 3 0 0 0 3 55 48 81 87 90 94 94 94 94 100 100 100 94 84 84 74 74 61 39 32 32 26 26 35 32 42
0 0 0 0 0 0 0 0 0 0 0 0 0 0 3 0 19 13 10 0 0 6 29 74 71 61 55 55 90 94 94 94 100 100 100 100 87 97 94 97 97 68 45 45 45 42 45 55 65
0 0 0 0 0 0 0 0 0 0 0 0 0 0 0 10 19 29 35 13 42 35 71 84 77 87 68 19 42 84 94 97 97 97 100 100 97 68 97 61 87 71 74 77 81 84 84 84 87
0 0 0 0 0 0 0 0 0 0 0 6 3 6 19 61 71 87 77 68 90 90 94 94 97 100 87 42 61 84 81 97 100 97 100 100 100 97 48 55 81 81 94 100 100 100 100 97 94
0 0 0 0 0 0 0 0 0 0 0 0 0 26 71 87 94 100 87 74 90 94 94 97 97 97 94 84 77 87 97 100 100 100 100 100 100 100 65 71 84 94 90 90 97 100 100 94 90
0 0 0 0 0 0 0 0 0 0 0 0 0 35 100 94 97 97 94 87 84 84 87 87 100 100 100 94 84 90 97 100 100 100 100 100 100 97 90 87 45 55 81 94 94 100 90 97 87
0 0 0 0 0 0 0 0 0 0 0 0 6 55 100 97 97 94 87 68 74 90 81 90 100 100 100 100 100 90 90 94 97 97 94 97 97 100 74 97 100 77 65 87 94 97 100 100 90
0 0 0 0 0 0 0 0 0 0 0 0 19 65 94 97 97 90 87 84 77 81 71 84 100 100 100 100 100 100 97 100 94 94 100 100 100 100 94 100 100 90 94 97 97 97 100 100 94
0 0 0 0 0 0 0 0 0 0 0 3 23 48 77 94 97 90 90 87 68 71 77 100 100 100 100 100 100 100 97 87 94 100 100 100 100 100 100 100 100 94 97 100 100 97 100 100 100
0 0 0 0 0 0 0 0 0 3 0 0 13 26 61 87 100 100 100 100 97 94 97 100 100 100 100 100 100 100 97 84 100 100 100 100 100 100 100 100 97 100 100 100 100 100 100 100 100
0 0 0 0 0 0 0 0 3 6 3 3 16 29 39 81 90 100 100 100 100 100 100 100 100 100 100 100 100 100 100 100 100 100 100 100 100 100 100 100 97 100 100 100 100 100 100 100 100
0 0 0 0 0 0 0 0 6 16 10 16 16 29 39 55 87 90 94 100 100 100 100 100 100 100 100 97 97 100 100 100 100 100 100 100 100 100 100 97 97 100 100 100 100 100 100 100 100
0 0 0 0 0 0 0 0 16 26 29 45 68 55 52 68 77 81 90 94 100 100 100 100 100 100 97 97 97 94 94 97 97 100 100 100 100 94 94 97 97 94 94 100 100 100 97 94 94
0 0 0 0 0 0 0 0 13 29 42 68 77 87 81 81 90 84 90 97 100 100 100 100 100 97 94 97 90 94 97 97 97 97 100 94 84 90 81 90 87 90 90 97 100 94 97 94 94
0 0 0 0 0 0 0 0 0 19 32 48 61 68 71 71 81 87 94 97 94 94 100 100 100 97 97 94 90 87 84 94 94 94 87 84 77 84 81 77 77 87 87 90 87 90 81 90 81
0 0 0 0 0 0 0 0 0 3 13 26 39 42 45 52 61 71 74 81 84 87 90 97 97 97 97 84 81 81 77 90 90 87 74 71 58 58 61 65 68 74 61 68 77 71 84 84 68
0 0 0 0 0 0 0 0 0 0 3 6 10 19 23 26 29 42 55 61 71 81 84 90 97 100 97 90 77 81 81 84 84 87 81 74 58 52 39 42 39 48 55 68 77 84 81 77 71
0 0 0 0 0 0 0 0 0 0 0 0 3 3 10 16 16 19 16 29 45 58 61 74 94 97 97 94 87 84 90 94 90 84 77 71 65 48 42 39 45 55 58 68 74 81 81 71 65
0 0 0 0 0 0 0 0 0 0 0 0 0 0 3 6 3 3 0 3 10 23 48 61 77 90 90 90 94 87 87 94 97 94 81 68 58 39 29 23 35 52 58 58 65 74 65 58 61
0 0 0 0 0 0 0 0 0 0 0 3 3 3 3 6 3 0 0 0 0 0 16 29 52 71 74 74 77 74 71 71 71 77 68 61 52 42 23 29 23 26 26 26 48 39 39 32 26
0 0 0 0 0 0 0 0 0 0 0 0 0 3 0 0 0 0 0 0 0 0 0 10 26 39 55 52 52 55 55 55 55 48 52 35 29 16 19 10 16 16 19 19 23 19 19 13 6
0 0 0 0 0 0 0 0 0 0 0 0 0 0 0 0 0 0 0 0 0 0 3 3 6 23 29 32 26 23 35 32 35 29 29 29 13 6 6 6 6 6 10 10 13 16 10 3 6
0 0 0 0 0 0 0 0 0 0 0 0 0 0 0 0 0 0 0 0 0 0 0 3 0 13 16 16 16 19 19 19 19 13 13 10 6 3 3 3 0 0 0 3 3 3 0 0 0
0 0 0 0 0 0 0 0 0 0 0 0 0 0 0 0 0 0 0 0 0 0 0 0 0 10 10 3 10 3 3 0 0 0 0 0 3 0 0 0 0 0 0 0 0 0 0 0 0

GEFSSGP_con_cape1000_042.txt.gz
Probability
0 0 0 0 10 39 0 0 0 0 0 0 0 0 0 6 58 90 0 0 0 0 16 100 100 100 100 100 100 100 97 94 97 97 97 81 58 42 26 29 32 42 35 26 29 23 16 16 26
0 0 0 0 6 0 0 0 0 0 0 0 0 0 0 0 0 0 0 0 3 0 3 65 100 100 100 100 100 100 97 94 97 94 94 81 61 42 19 16 16 13 16 13 13 13 10 6 6
0 0 0 0 0 0 0 0 0 0 0 0 0 0 0 0 0 0 0 0 3 0 0 97 100 100 100 100 100 100 97 97 97 97 90 71 61 45 29 26 19 16 16 10 6 6 6 6 3
0 0 0 0 0 0 0 0 0 0 0 0 0 0 0 0 0 0 0 0 0 0 10 94 100 100 100 100 100 100 100 100 97 90 74 68 58 45 35 39 29 23 10 13 16 16 16 23 23
0 0 0 0 0 0 0 0 0 0 0 0 0 0 6 0 0 3 0 0 0 0 29 71 100 100 100 100 100 100 100 100 94 84 65 61 55 55 45 29 19 13 10 3 10 16 26 39 55
0 0 0 0 0 0 0 0 0 0 0 0 0 3 0 0 0 0 0 0 0 19 19 55 97 100 100 100 100 100 100 97 97 74 58 58 55 52 45 29 26 19 16 19 19 26 42 48 77
0 0 0 0 0 0 0 0 0 0 0 0 0 3 3 0 0 0 0 0 3 26 29 16 77 97 97 97 97 97 100 97 97 94 81 68 68 65 58 61 55 55 45 52 42 42 45 61 84
0 0 0 0 0 0 0 0 0 0 0 0 0 0 6 3 0 0 0 0 13 45 52 26 16 61 87 90 97 97 97 100 100 97 97 84 71 71 77 90 90 90 81 65 68 71 74 84 94
0 0 0 0 0 0 0 0 0 0 0 0 0 0 10 3 0 0 0 3 29 61 74 35 23 55 55 19 77 94 97 100 100 100 100 100 97 74 90 90 100 97 94 90 87 87 90 97 97
0 0 0 0 0 0 0 0 0 0 0 0 0 10 3 3 6 13 10 10 32 77 84 71 58 61 42 16 52 65 77 94 94 97 100 100 100 100 100 97 100 100 100 97 100 100 100 100 84
0 0 0 0 0 0 0 0 0 0 0 0 3 23 16 10 23 45 35 55 90 90 90 97 90 94 77 65 84 61 65 90 90 94 100 100 100 100 100 100 100 100 100 97 97 100 100 97 97
0 0 0 0 0 0 0 0 0 0 0 0 3 29 35 42 52 65 87 97 97 97 90 94 100 100 100 97 94 94 87 94 94 97 100 100 100 100 100 100 100 100 97 97 100 100 100 100 100
0 0 0 0 0 0 0 0 0 0 0 0 3 26 42 58 68 87 84 84 97 100 100 100 100 100 100 100 100 97 94 94 97 100 100 100 100 100 100 100 100 100 100 100 100 100 100 100 100
0 0 0 0 0 0 0 0 0 0 0 0 3 13 32 45 71 87 97 100 100 100 100 100 100 100 100 100 100 100 100 100 100 100 100 100 100 100 100 100 100 100 100 100 100 100 100 100 100
0 0 0 0 0 0 0 0 0 0 0 0 0 13 19 39 65 81 94 100 100 100 100 100 100 100 100 100 100 100 100 100 100 100 100 100 100 100 100 100 100 100 100 100 100 100 100 100 100
0 0 0 0 0 0 0 0 0 0 0 0 0 10 19 48 55 74 94 100 100 100 100 100 100 100 100 100 100 100 100 100 100 100 100 100 100 100 100 100 100 100 100 100 100 97 97 97 94
0 0 0 0 0 0 0 0 0 0 0 0 3 16 19 45 58 74 81 90 100 100 100 100 100 100 100 100 100 100 100 100 100 100 100 100 100 100 100 100 100 100 100 97 97 97 97 87 84
0 0 0 0 0 0 0 0 0 0 0 0 10 19 39 52 71 74 87 90 100 100 100 100 100 100 100 100 100 100 100 100 100 100 100 100 100 100 100 100 100 97 97 94 90 87 87 77 71
0 0 0 0 0 0 0 0 0 0 0 0 10 23 55 74 74 87 94 97 97 100 100 100 100 100 100 100 100 100 100 100 100 100 100 100 100 100 100 100 100 90 87 81 81 87 77 65 68
0 0 0 0 0 0 0 0 0 0 0 0 13 42 52 71 77 81 90 94 97 97 97 97 100 100 100 100 100 100 100 100 100 97 97 97 100 100 97 97 94 90 84 87 77 68 55 45 39
0 0 0 0 0 0 0 0 0 0 3 10 16 42 42 58 55 68 77 84 84 87 97 97 100 97 97 97 97 100 100 100 100 100 100 100 97 94 94 87 87 87 81 77 65 55 55 32 29
0 0 0 0 0 0 0 0 0 0 6 16 16 32 39 39 45 45 42 52 61 71 81 97 100 100 100 100 97 97 97 100 100 100 100 100 97 90 87 87 90 87 77 74 58 52 48 42 29
0 0 0 0 0 0 0 0 0 0 3 10 19 29 32 29 32 32 26 26 32 32 45 77 94 100 100 100 100 100 100 100 100 100 100 100 97 94 87 87 81 87 74 74 61 58 61 48 29
0 0 0 0 0 0 0 0 0 0 3 6 23 23 26 19 23 16 13 16 16 23 32 48 87 100 97 97 97 97 94 94 94 97 94 94 90 87 90 87 84 81 77 68 65 61 55 45 42
0 0 0 0 0 0 0 0 0 0 3 3 13 6 6 10 10 13 10 10 10 10 10 35 68 81 90 90 90 90 90 87 87 87 84 87 90 90 84 87 84 84 77 74 71 65 52 48 39
0 0 0 0 0 0 0 0 0 0 0 0 0 0 3 6 6 6 6 3 3 3 16 23 52 68 71 81 84 87 81 74 71 74 74 71 77 77 77 74 77 74 77 61 77 61 58 52 48
0 0 0 0 0 0 0 0 0 0 0 0 0 0 0 3 3 3 0 0 0 0 10 19 35 61 74 74 74 71 55 45 45 52 55 48 58 55 48 52 58 61 58 42 55 45 42 45 52
0 0 0 0 0 0 0 0 0 3 0 0 0 0 0 0 0 3 3 3 3 10 16 19 32 45 58 55 52 19 32 29 32 29 35 35 35 39 42 29 29 23 19 23 32 45 29 35 32
0 0 0 0 0 0 0 0 0 10 3 0 0 0 0 0 0 0 3 6 3 0 3 26 23 35 39 35 35 26 16 10 10 16 13 13 16 19 16 19 16 13 23 16 23 26 23 10 10
0 0 0 0 0 0 3 0 0 0 0 0 0 0 0 0 0 0 0 3 3 6 13 16 29 32 32 29 23 19 16 6 6 6 0 3 6 6 10 13 10 10 10 13 13 6 10 3 0

GEFSSGP_con_cape1000_048.txt.gz
Probability
0 0 0 0 0 0 0 0 0 0 0 0 0 0 19 42 19 0 0 0 0 58 94 100 100 100 100 100 100 90 90 90 87 87 87 87 81 74 74 81 87 87 65 55 42 32 39 52 65
0 0 0 0 0 0 0 0 0 0 0 0 0 0 0 0 0 0 0 0 6 65 87 97 100 100 100 100 97 90 90 94 94 90 90 87 81 74 65 61 65 65 48 29 26 13 10 16 16
0 0 0 0 0 0 0 0 0 0 0 0 0 0 0 0 0 0 0 0 13 52 68 94 100 100 100 100 100 97 97 97 97 97 90 90 84 74 61 52 48 52 39 26 23 10 6 10 6
0 0 0 0 0 0 0 0 0 0 0 0 0 0 0 0 0 0 0 0 0 32 74 100 100 100 100 100 100 97 97 100 100 100 94 94 87 74 74 65 55 58 42 35 29 32 29 32 26
0 0 0 0 0 0 0 0 0 0 0 0 0 0 0 0 0 0 0 0 3 45 77 100 100 100 100 100 100 97 97 100 100 100 97 94 94 94 81 74 61 52 45 42 52 61 71 68 68
0 0 0 0 0 0 0 0 0 0 0 0 0 0 0 0 0 0 0 0 3 39 84 100 100 100 100 100 100 100 100 100 100 100 100 97 94 90 87 81 71 61 55 58 71 71 81 87 97
0 0 0 0 0 0 0 0 0 0 0 0 0 0 0 0 0 0 0 0 0 19 77 97 100 100 100 100 100 100 100 100 100 100 100 100 100 100 100 94 94 84 81 87 90 90 90 90 97
0 0 0 0 0 0 0 0 0 0 0 0 0 0 0 0 0 0 0 0 0 0 32 81 84 97 100 100 100 100 100 100 100 100 100 100 100 100 100 100 100 94 97 97 97 94 94 94 100
0 0 0 0 0 0 0 0 0 0 0 0 0 0 0 0 0 0 0 0 3 3 10 52 68 61 68 90 100 100 100 100 100 100 100 100 81 77 87 100 100 100 100 100 100 100 100 100 100
0 0 0 0 0 0 0 0 0 0 0 0 3 0 0 0 0 0 10 13 3 0 0 23 42 52 52 77 84 100 100 100 100 94 100 94 55 29 65 84 100 100 100 100 100 100 100 100 94
0 0 0 0 0 0 0 0 0 0 0 0 0 0 0 0 0 10 16 23 16 0 0 3 10 26 26 16 35 81 84 84 87 84 81 81 71 52 74 48 84 100 100 100 100 100 100 94 84
0 0 0 0 0 0 0 0 0 0 0 0 0 0 0 0 0 0 10 26 29 16 0 0 3 3 6 0 13 29 52 65 74 74 71 74 65 58 58 55 61 71 90 97 94 84 81 61 52
0 0 0 0 0 0 0 0 0 0 0 3 0 0 0 0 0 0 0 10 29 35 29 6 6 6 6 3 6 13 13 13 48 52 65 77 81 74 65 74 68 61 71 94 87 65 52 42 52
0 0 0 0 0 0 0 0 0 0 0 3 3 6 10 10 0 3 13 16 26 39 52 29 19 23 23 29 23 13 13 16 35 52 52 61 84 87 87 84 77 84 84 84 81 74 48 42 68
0 0 0 0 0 0 0 0 0 0 3 6 13 19 23 29 26 32 29 29 35 39 58 58 45 55 58 71 77 68 68 65 71 65 61 68 87 90 90 87 90 90 68 61 55 58 45 52 52
0 0 0 0 0 0 0 0 0 6 6 16 35 52 42 39 45 48 48 48 48 55 74 84 94 84 84 87 90 97 94 90 87 87 77 84 90 90 94 94 94 87 84 74 71 55 42 48 39
0 0 0 0 0 0 0 0 3 10 16 23 39 45 65 58 55 58 52 65 55 61 74 84 87 94 90 87 94 94 94 94 97 94 90 84 94 97 97 100 90 84 81 74 71 61 42 35 23
0 0 0 0 0 0 0 0 3 10 16 29 42 65 65 65 68 65 68 68 65 52 68 65 71 71 87 94 90 94 94 94 94 94 90 97 97 97 94 94 94 84 71 58 45 45 26 23 19
0 0 0 0 0 0 0 0 0 3 16 39 55 58 65 68 65 65 71 61 68 61 71 65 71 74 74 74 81 90 94 90 97 97 97 97 97 94 90 90 90 87 74 58 48 29 19 10 6
0 0 0 0 0 0 0 0 0 0 13 26 48 52 52 52 48 45 48 45 42 45 48 58 65 68 71 74 74 84 87 90 87 90 90 90 84 81 87 87 87 84 71 68 42 23 23 6 6
0 0 0 0 0 0 0 0 0 3 23 23 42 39 52 45 42 39 39 42 45 45 45 58 61 61 65 65 65 65 65 65 77 77 84 81 77 74 77 74 71 71 58 65 48 29 13 10 6
0 0 0 0 0 0 0 0 0 0 13 13 23 35 35 39 35 39 39 39 42 42 45 48 55 52 55 61 55 55 52 65 65 65 68 65 74 68 74 74 74 65 58 58 52 32 13 10 10
0 0 0 0 0 0 0 0 0 0 3 3 29 35 29 35 39 39 32 29 35 42 42 39 48 45 48 45 42 42 42 42 42 39 35 45 52 52 61 65 55 52 52 42 42 32 6 6 6
0 0 0 0 0 0 0 0 0 0 6 13 26 26 23 29 39 39 35 29 26 32 29 32 39 42 35 32 29 29 29 19 16 16 13 19 16 19 29 35 42 39 29 32 39 29 16 6 10
0 0 0 0 0 0 0 0 0 0 10 19 26 23 23 23 29 29 23 19 16 16 23 26 35 39 29 26 13 16 13 6 3 3 6 6 6 13 10 19 13 16 23 23 26 16 10 13 6
0 0 0 0 0 0 0 0 0 0 10 16 19 26 23 16 16 16 13 10 10 13 10 16 23 23 19 13 10 6 3 3 3 0 0 0 0 3 0 6 13 13 10 13 13 3 3 3 6
0 0 0 0 0 0 0 0 0 0 3 3 6 10 13 6 6 13 10 10 10 6 6 6 6 6 6 6 6 6 3 0 0 0 0 0 0 0 0 0 3 10 10 3 3 0 0 0 0
0 0 0 0 0 0 0 0 0 0 0 0 0 0 3 6 6 6 6 6 10 6 6 10 6 6 6 3 3 6 0 0 0 0 0 0 0 0 0 0 0 6 3 6 0 0 0 0 0
0 0 0 0 0 0 0 0 0 0 0 0 0 0 0 0 3 3 3 3 3 3 0 3 0 0 0 3 3 3 0 0 0 0 0 0 0 0 0 0 0 3 0 3 3 0 0 0 0
0 0 0 0 0 0 0 0 0 0 0 0 0 0 0 0 0 0 0 0 0 3 0 0 0 0 0 0 0 0 0 0 0 0 0 0 0 0 0 0 0 0 0 0 3 0 0 0 0

GEFSSGP_con_cape1000_054.txt.gz
Probability
0 0 0 0 0 0 0 0 0 0 0 0 0 0 0 0 0 0 0 0 0 26 81 100 100 90 81 71 71 84 97 97 100 100 100 100 94 90 90 87 74 45 26 29 39 48 61 71 71
0 0 0 0 0 0 0 0 0 0 0 0 0 0 0 0 0 0 0 0 3 55 84 87 100 94 90 81 77 84 94 97 100 100 100 94 87 84 74 71 58 45 26 13 13 16 19 32 45
0 0 0 0 0 0 0 0 0 0 0 0 0 0 0 0 0 0 0 0 19 65 74 84 100 100 97 94 87 84 94 100 97 94 97 90 81 81 71 71 55 39 32 16 6 6 13 16 23
0 0 0 0 0 0 0 0 0 0 0 0 0 0 0 0 0 0 0 3 32 65 68 87 100 100 100 97 94 90 94 97 100 100 94 94 84 84 65 61 61 68 42 35 23 19 19 19 32
0 0 0 0 0 0 0 0 0 0 0 0 0 0 0 0 0 0 0 6 32 58 71 97 100 100 100 97 97 97 97 100 100 100 100 100 100 87 87 81 77 87 84 61 52 52 55 58 55
0 0 0 0 0 0 0 0 0 0 0 0 0 0 0 0 0 0 0 3 23 65 68 97 100 100 100 100 100 97 100 100 100 100 100 100 100 100 100 100 90 90 94 97 97 87 90 90 84
0 0 0 0 0 0 0 0 0 0 0 0 0 0 0 0 0 0 3 3 16 55 71 97 100 100 100 100 100 100 100 100 100 100 100 100 100 100 100 100 100 97 97 100 100 100 100 100 100
0 0 0 0 0 0 0 0 0 0 0 0 0 0 0 0 0 0 0 0 16 55 81 97 100 100 100 100 100 100 100 100 100 100 100 100 100 100 100 100 100 100 100 100 100 100 100 100 100
0 0 0 0 0 0 0 0 0 0 0 0 0 0 0 0 0 0 0 3 16 58 84 87 94 90 100 100 100 100 100 100 100 100 100 100 100 100 100 100 100 100 100 100 100 100 100 100 100
0 0 0 0 0 0 0 0 0 0 0 0 0 0 0 0 0 0 0 0 0 32 68 90 81 81 81 100 100 100 100 100 100 100 100 100 97 71 100 94 100 100 100 100 100 100 100 100 100
0 0 0 0 0 0 0 0 0 0 0 0 0 0 0 0 0 0 0 0 0 0 32 84 87 81 84 90 71 90 100 100 100 100 94 94 87 71 90 71 90 100 100 100 100 100 100 100 100
0 0 0 0 0 0 0 0 0 0 0 0 0 0 3 0 0 0 0 0 0 0 6 42 74 71 81 55 26 48 74 77 90 90 84 84 84 81 74 68 61 48 61 87 100 100 100 100 97
0 0 0 0 0 0 0 0 0 0 0 0 0 0 0 0 0 0 10 0 0 3 3 10 35 61 61 42 19 39 65 68 77 68 71 84 87 84 77 68 65 55 61 65 77 97 100 100 100
0 0 0 0 0 0 0 0 0 0 3 6 0 3 3 3 0 3 13 10 10 10 3 6 13 23 26 26 23 13 19 45 45 45 61 65 71 77 74 61 55 55 52 61 68 84 94 94 97
0 0 0 0 0 0 0 0 0 10 16 19 13 16 13 13 13 16 26 29 26 19 13 3 3 10 10 16 13 6 3 10 16 23 26 45 58 74 71 58 58 61 55 55 61 74 87 90 90
0 0 0 0 0 0 0 0 6 10 19 23 19 32 32 29 26 23 35 32 23 26 13 13 19 3 3 6 6 3 6 10 16 10 16 26 45 65 74 71 71 71 61 71 71 74 77 84 74
0 0 0 0 0 0 0 3 10 19 29 26 32 42 39 45 45 45 39 39 32 35 26 19 26 23 16 19 23 23 32 35 35 55 58 55 65 74 74 74 81 81 77 74 74 81 68 71 65
0 0 0 0 0 0 3 3 13 29 39 39 39 45 42 48 42 48 48 55 48 39 39 32 32 35 32 26 35 48 48 48 52 61 61 58 74 84 77 81 81 81 71 71 61 68 55 48 45
0 0 0 0 0 0 0 6 13 35 39 39 45 45 48 42 52 55 52 55 45 52 55 52 45 39 35 42 48 42 48 52 61 58 65 61 61 65 65 65 68 65 68 68 68 68 48 42 32
0 0 0 0 0 0 0 6 13 16 26 35 32 35 35 35 45 48 42 45 39 32 35 42 39 39 45 42 42 48 48 42 45 42 45 45 55 52 48 58 52 55 58 65 71 58 45 29 23
0 0 0 0 0 0 0 0 0 10 16 32 39 35 29 35 35 39 39 42 35 35 35 39 35 35 42 42 29 32 23 19 19 19 19 19 26 45 42 45 45 48 48 52 52 55 45 42 19
0 0 0 0 0 0 0 0 0 6 16 26 26 26 26 39 39 39 32 35 35 35 35 35 35 35 32 32 26 19 16 16 16 6 6 10 10 13 19 35 32 29 39 42 45 42 45 35 29
0 0 0 0 0 0 0 0 0 0 10 10 16 23 26 29 39 35 35 32 32 32 32 39 32 29 23 23 23 16 16 10 3 3 3 3 0 0 3 6 6 16 23 23 29 32 26 29 26
0 0 0 0 0 0 0 0 0 0 0 6 13 26 26 26 26 29 35 32 29 29 35 35 29 23 16 13 10 6 6 3 3 0 0 0 0 0 0 0 3 3 6 10 19 23 23 19 13
0 0 0 0 0 0 0 0 0 0 0 3 6 13 26 23 23 26 19 29 32 23 29 32 29 19 13 10 6 6 6 3 0 3 0 0 0 0 0 0 0 0 0 6 10 16 16 10 10
0 0 0 0 0 0 0 0 0 0 0 3 6 10 16 16 16 13 3 10 16 16 23 23 13 13 10 10 6 3 3 0 0 0 0 0 0 0 0 0 0 0 3 0 3 10 16 13 10
0 0 0 0 0 0 0 0 0 0 0 0 3 3 3 3 3 3 3 3 3 10 13 16 13 10 6 10 6 0 0 0 0 0 0 0 0 0 0 0 0 0 0 0 0 6 10 16 13
0 0 0 0 0 0 0 0 0 0 0 0 0 3 3 3 3 3 3 3 3 3 3 3 10 10 10 3 0 0 0 0 0 0 0 0 0 0 0 0 0 0 0 0 3 6 3 3 6
0 0 0 0 0 0 0 0 0 0 0 0 0 0 0 3 3 0 0 0 0 0 0 0 0 3 3 3 0 0 0 0 0 0 0 0 0 0 0 0 0 0 0 0 0 0 0 0 0
0 0 0 0 0 0 0 0 0 0 0 0 0 0 0 0 0 0 0 0 0 0 0 0 0 0 0 0 0 0 0 0 0 0 0 0 0 0 0 0 0 0 0 0 0 0 0 0 0

GEFSSGP_con_cape1000_060.txt.gz
Probability
0 0 0 0 42 0 0 0 0 0 0 0 0 0 0 0 0 48 10 0 0 13 68 87 97 100 100 100 100 100 100 100 100 100 100 100 97 77 48 32 29 35 45 48 58 65 74 74 77
0 0 0 0 0 0 0 0 0 0 0 0 0 0 0 3 10 6 3 0 0 29 81 68 94 100 100 100 100 100 100 100 100 100 100 97 87 81 55 29 23 16 13 23 29 35 58 55 58
0 0 0 0 0 0 0 0 0 0 0 0 0 0 0 3 0 3 3 0 0 45 81 87 100 97 100 100 100 100 100 100 100 94 94 90 77 74 58 52 29 16 13 10 10 16 16 26 29
0 0 0 0 0 0 0 0 0 0 0 0 0 0 0 3 0 3 3 0 10 52 65 97 100 97 97 100 100 100 100 100 97 94 87 81 77 68 55 48 48 29 10 3 10 10 6 10 13
0 0 0 0 0 0 0 0 0 0 0 0 0 0 3 10 3 0 0 3 16 19 35 94 100 100 97 94 100 100 100 100 97 97 90 84 81 68 61 55 52 52 52 35 32 23 16 16 26
0 0 0 0 0 0 0 0 0 0 0 0 0 3 6 16 6 0 0 10 3 10 23 97 100 100 100 100 97 97 100 100 97 97 94 94 84 77 71 71 74 61 71 77 77 68 71 71 77
0 0 0 0 0 0 0 0 0 0 3 3 3 3 10 26 23 10 23 6 3 6 16 94 97 100 100 100 100 100 100 100 100 100 100 97 90 94 94 94 94 90 87 90 97 100 94 94 94
0 0 0 0 0 0 0 0 0 0 3 10 3 3 6 52 52 42 32 19 3 10 35 84 97 100 97 97 100 100 100 100 100 100 100 100 100 97 97 100 100 100 100 100 100 100 100 100 100
0 0 0 0 0 0 0 0 0 3 23 19 19 6 6 74 74 81 74 55 58 45 74 71 90 100 97 74 94 97 100 100 100 100 100 100 100 90 100 100 100 100 100 100 100 100 100 100 100
0 0 0 0 0 0 0 0 0 3 10 29 48 71 81 90 94 94 94 90 100 94 94 94 94 97 94 74 97 100 100 100 100 100 100 100 100 100 90 94 100 100 100 100 100 100 100 100 100
0 0 0 0 0 0 0 0 0 0 0 6 29 74 90 94 97 100 97 97 100 100 97 100 100 100 97 100 100 100 97 100 100 100 100 100 100 100 100 100 100 100 100 100 100 100 100 100 100
0 0 0 0 0 0 0 0 0 0 3 6 23 65 94 94 94 100 100 100 100 100 97 94 100 100 100 100 100 100 97 97 97 100 100 100 100 100 100 100 100 100 100 100 100 100 100 100 100
0 0 0 0 0 0 0 0 0 3 6 26 42 81 90 87 94 97 100 100 100 100 100 100 100 100 100 100 100 94 100 90 94 100 100 100 100 100 100 100 100 100 90 97 100 94 97 100 100
0 0 0 0 0 0 0 0 3 6 19 42 58 77 84 87 87 94 100 100 100 100 100 100 100 100 100 100 100 97 97 97 97 97 87 90 90 94 100 100 100 100 100 94 100 100 100 97 97
0 0 0 0 0 0 0 3 3 13 16 35 48 68 77 84 94 100 97 97 97 97 100 100 100 100 100 100 97 97 97 90 90 97 94 90 87 90 90 97 100 100 100 100 100 100 100 97 94
0 0 0 0 0 0 0 0 13 23 23 32 45 65 84 90 90 97 97 97 97 97 97 97 94 97 100 97 100 94 94 100 97 97 94 97 97 90 94 94 97 97 97 97 97 97 97 97 97
0 0 0 0 0 0 0 0 26 35 29 45 55 74 81 84 87 90 87 87 87 90 90 90 90 90 94 97 100 100 100 97 94 94 90 90 87 84 94 97 97 100 97 94 97 97 100 94 94
0 0 0 0 3 0 0 10 35 48 45 55 61 68 74 74 84 90 87 87 87 87 90 90 90 94 94 94 94 90 87 87 87 90 90 90 90 84 94 90 87 87 90 94 94 97 94 97 94
0 0 0 0 3 3 3 13 32 45 52 52 61 68 74 74 77 81 84 87 87 84 84 87 84 90 87 81 68 68 58 58 55 58 61 74 74 71 81 61 77 84 81 87 84 87 84 84 94
0 0 0 0 3 3 6 13 29 42 55 58 65 65 71 65 71 77 81 77 74 77 81 77 81 77 77 71 68 74 65 52 45 42 65 48 45 48 35 48 48 55 68 68 68 71 74 71 77
0 0 0 0 0 3 3 6 16 42 48 61 65 71 71 65 65 61 65 71 68 68 71 65 77 84 74 71 61 58 61 52 32 32 29 26 32 23 32 39 45 52 52 55 65 68 65 65 68
0 0 0 0 0 0 0 0 6 16 26 52 55 71 68 74 58 55 52 55 61 61 61 71 81 84 74 74 58 55 58 26 23 39 32 35 19 16 19 19 23 32 26 45 42 39 61 65 58
0 0 0 0 0 0 0 0 0 6 16 16 42 61 68 61 48 55 39 52 48 55 55 68 87 87 84 74 71 68 52 39 23 39 45 45 19 13 13 13 13 23 19 19 35 35 39 39 48
0 0 0 0 0 0 0 0 0 0 3 10 26 42 55 52 45 42 39 39 45 42 48 61 74 90 84 77 71 74 65 65 58 55 42 29 23 16 13 6 6 6 10 10 19 23 29 35 39
0 0 0 0 0 0 0 0 0 3 6 13 19 35 39 39 35 35 32 29 29 29 32 45 61 77 81 81 77 77 68 68 65 61 32 29 6 3 16 0 6 6 6 10 10 13 16 23 35
0 0 0 0 0 0 0 0 0 0 0 6 10 16 16 16 19 19 23 23 23 16 19 26 42 55 65 65 68 74 74 61 52 55 42 26 23 0 0 6 3 3 6 10 10 10 13 16 23
0 0 0 0 0 0 0 0 0 6 3 0 0 0 0 0 3 6 6 6 6 13 13 19 29 39 48 52 61 65 61 61 65 61 61 32 32 13 10 10 10 3 6 10 10 10 16 16 16
0 0 0 0 0 0 0 0 0 0 0 0 0 0 0 0 3 3 3 3 3 3 10 13 16 26 29 32 42 35 48 55 61 61 52 48 45 39 23 13 10 6 3 6 10 10 13 19 19
0 0 0 0 0 0 0 0 0 0 0 0 0 0 0 0 0 0 0 0 0 3 3 6 13 13 13 19 26 32 29 39 48 61 48 45 52 39 23 19 10 6 3 6 10 6 3 6 13
0 0 0 0 0 0 0 0 0 0 0 0 0 0 0 0 0 0 0 0 0 0 0 3 3 3 6 10 16 16 23 26 26 35 42 42 39 35 26 19 10 3 3 6 3 6 3 6 6